PGT839Q LTFJ-EDDL

Flight info

Callsign PGT839Q
Flight time N/A
Altitude 36000
Route TUDBU1W/06R TUDBU DCT NAVOD DCT PANZU DCT SODGO DCT GUPRO/N0444F380 DCT MOPUG DCT BEGLA DCT FMD DCT DITIS DCT VEXIL DCT KUMER DCT TOLTA DCT APEBE L602 HMM/N0392F240 T851 HALME HALME1A
Aircraft A320/M-SDE3FGHIRWY/LB1

Departure

Time N/A
Airport Istanbul Sabiha Gökçen International Airport (LTFJ)

Arrival

Time 2026-05-05 19:27
Airport Düsseldorf Airport (EDDL)
Time Latitude Longitude Altitude Speed Heading
2026-05-05 18:37 51.56681 10.42136 35825 ft 437 kts 277°
2026-05-05 18:37 51.57343 10.37297 35826 ft 437 kts 277°
2026-05-05 18:37 51.58643 10.27780 35824 ft 437 kts 277°
2026-05-05 18:38 51.59933 10.18230 35818 ft 437 kts 277°
2026-05-05 18:38 51.61215 10.08634 35821 ft 439 kts 277°
2026-05-05 18:39 51.62489 9.99078 35814 ft 436 kts 277°
2026-05-05 18:39 51.63745 9.89533 35816 ft 435 kts 277°
2026-05-05 18:40 51.64993 9.79996 35821 ft 435 kts 277°
2026-05-05 18:40 51.66234 9.70463 35825 ft 435 kts 277°
2026-05-05 18:41 51.67478 9.60902 35815 ft 436 kts 277°
2026-05-05 18:41 51.68688 9.51400 35819 ft 436 kts 276°
2026-05-05 18:42 51.69609 9.41769 35816 ft 434 kts 272°
2026-05-05 18:42 51.70258 9.32118 35833 ft 433 kts 271°
2026-05-05 18:43 51.70912 9.22458 35818 ft 433 kts 272°
2026-05-05 18:43 51.71626 9.12791 35841 ft 434 kts 272°
2026-05-05 18:44 51.72351 9.03153 35828 ft 434 kts 272°
2026-05-05 18:44 51.72691 8.98602 35846 ft 434 kts 272°
2026-05-05 18:45 51.73399 8.88935 35838 ft 434 kts 272°
2026-05-05 18:45 51.74090 8.79264 35842 ft 434 kts 272°
2026-05-05 18:46 51.74991 8.69609 35833 ft 437 kts 276°
2026-05-05 18:46 51.76139 8.60040 35840 ft 438 kts 277°
2026-05-05 18:47 51.77286 8.50393 35849 ft 437 kts 276°
2026-05-05 18:47 51.78355 8.40716 35847 ft 437 kts 275°
2026-05-05 18:48 51.79379 8.31047 35834 ft 436 kts 275°
2026-05-05 18:48 51.79885 8.26282 35704 ft 431 kts 275°
2026-05-05 18:48 51.80398 8.21469 34598 ft 432 kts 275°
2026-05-05 18:49 51.80909 8.16671 33217 ft 436 kts 275°
2026-05-05 18:49 51.81418 8.11887 32075 ft 434 kts 275°
2026-05-05 18:49 51.81928 8.07121 31068 ft 428 kts 276°
2026-05-05 18:49 51.82700 8.02496 30141 ft 428 kts 291°
2026-05-05 18:50 51.84256 7.98454 29765 ft 417 kts 303°
2026-05-05 18:50 51.85967 7.94773 29619 ft 404 kts 303°
2026-05-05 18:50 51.87673 7.91142 28712 ft 410 kts 304°
2026-05-05 18:50 51.89411 7.87419 27778 ft 417 kts 304°
2026-05-05 18:51 51.91158 7.83663 27126 ft 416 kts 303°
2026-05-05 18:51 51.92886 7.79926 26561 ft 413 kts 304°
2026-05-05 18:51 51.94598 7.76196 26012 ft 410 kts 303°
2026-05-05 18:51 51.96292 7.72496 25467 ft 407 kts 303°
2026-05-05 18:52 51.97970 7.68822 24942 ft 403 kts 303°
2026-05-05 18:52 51.99631 7.65177 24431 ft 400 kts 303°
2026-05-05 18:52 52.01256 7.61602 23936 ft 397 kts 303°
2026-05-05 18:52 52.02888 7.58005 23430 ft 394 kts 303°
2026-05-05 18:53 52.04504 7.54434 22869 ft 391 kts 303°
2026-05-05 18:53 52.06033 7.50808 22336 ft 385 kts 295°
2026-05-05 18:53 52.06937 7.46791 21849 ft 375 kts 278°
2026-05-05 18:53 52.07082 7.42610 21343 ft 367 kts 261°
2026-05-05 18:54 52.06763 7.39932 21020 ft 362 kts 250°
2026-05-05 18:54 52.05703 7.36260 20773 ft 359 kts 234°
2026-05-05 18:54 52.04077 7.33214 20507 ft 357 kts 219°
2026-05-05 18:54 52.02011 7.31032 20255 ft 355 kts 204°
2026-05-05 18:55 51.99662 7.29852 20009 ft 354 kts 191°
2026-05-05 18:55 51.97252 7.29034 19761 ft 353 kts 191°
2026-05-05 18:55 51.94844 7.28221 19516 ft 354 kts 191°
2026-05-05 18:55 51.92451 7.27413 19274 ft 352 kts 192°
2026-05-05 18:56 51.90056 7.26607 19034 ft 351 kts 192°
2026-05-05 18:56 51.87677 7.25807 18795 ft 349 kts 192°
2026-05-05 18:56 51.85296 7.25003 18560 ft 350 kts 192°
2026-05-05 18:56 51.82942 7.24202 18277 ft 343 kts 192°
2026-05-05 18:57 51.80623 7.23411 17886 ft 339 kts 192°
2026-05-05 18:57 51.78333 7.22634 17500 ft 334 kts 192°
2026-05-05 18:57 51.76080 7.21866 17127 ft 329 kts 192°
2026-05-05 18:57 51.73851 7.21109 16765 ft 325 kts 192°
2026-05-05 18:58 51.71661 7.20301 16407 ft 321 kts 197°
2026-05-05 18:58 51.69608 7.18931 16024 ft 319 kts 208°
2026-05-05 18:58 51.67742 7.17009 15617 ft 318 kts 215°
2026-05-05 18:58 51.66166 7.14664 15540 ft 307 kts 225°
2026-05-05 18:59 51.64671 7.12195 15472 ft 309 kts 225°
2026-05-05 18:59 51.63166 7.09725 15403 ft 309 kts 224°
2026-05-05 18:59 51.61658 7.07252 15335 ft 310 kts 225°
2026-05-05 18:59 51.60154 7.04783 15268 ft 309 kts 225°
2026-05-05 19:00 51.58644 7.02299 14777 ft 315 kts 224°
2026-05-05 19:00 51.57086 6.99730 14217 ft 323 kts 225°
2026-05-05 19:00 51.55505 6.97122 13978 ft 327 kts 225°
2026-05-05 19:00 51.53916 6.94507 13747 ft 328 kts 225°
2026-05-05 19:01 51.52328 6.91899 13491 ft 326 kts 224°
2026-05-05 19:01 51.50743 6.89298 13215 ft 324 kts 225°
2026-05-05 19:01 51.49164 6.86710 12947 ft 324 kts 225°
2026-05-05 19:01 51.47584 6.84127 12669 ft 323 kts 225°
2026-05-05 19:02 51.46019 6.81571 12106 ft 317 kts 225°
2026-05-05 19:02 51.44478 6.79059 11306 ft 315 kts 225°
2026-05-05 19:02 51.42944 6.76563 10958 ft 314 kts 225°
2026-05-05 19:02 51.41409 6.74066 10843 ft 315 kts 225°
2026-05-05 19:03 51.39864 6.71554 10741 ft 316 kts 225°
2026-05-05 19:03 51.38341 6.69084 10098 ft 308 kts 225°
2026-05-05 19:03 51.36856 6.66680 9623 ft 295 kts 226°
2026-05-05 19:03 51.35452 6.64402 9161 ft 283 kts 226°
2026-05-05 19:04 51.34084 6.62182 8515 ft 279 kts 226°
2026-05-05 19:04 51.32727 6.59989 7812 ft 276 kts 225°
2026-05-05 19:04 51.31374 6.57820 7140 ft 274 kts 225°
2026-05-05 19:04 51.30035 6.55665 6499 ft 272 kts 225°
2026-05-05 19:05 51.28711 6.53524 5802 ft 270 kts 225°
2026-05-05 19:05 51.27407 6.51411 5075 ft 271 kts 225°
2026-05-05 19:05 51.26090 6.49275 4372 ft 269 kts 225°
2026-05-05 19:05 51.24772 6.47147 3633 ft 269 kts 226°
2026-05-05 19:06 51.23469 6.45037 3128 ft 265 kts 225°
2026-05-05 19:06 51.22148 6.42916 2999 ft 271 kts 225°
2026-05-05 19:06 51.20823 6.40787 3004 ft 270 kts 225°
2026-05-05 19:06 51.19500 6.38661 3003 ft 269 kts 225°
2026-05-05 19:07 51.18126 6.36649 3003 ft 268 kts 212°
2026-05-05 19:07 51.16386 6.35672 3007 ft 266 kts 182°
2026-05-05 19:07 51.14576 6.36139 3005 ft 264 kts 153°
2026-05-05 19:07 51.13156 6.37913 3004 ft 260 kts 124°
2026-05-05 19:08 51.12480 6.40518 3004 ft 256 kts 94°
2026-05-05 19:08 51.12740 6.43272 3005 ft 253 kts 64°
2026-05-05 19:08 51.13719 6.45599 3007 ft 253 kts 52°
2026-05-05 19:08 51.14810 6.47808 3002 ft 254 kts 51°
2026-05-05 19:09 51.15894 6.50032 3006 ft 254 kts 52°
2026-05-05 19:09 51.16966 6.52259 3005 ft 251 kts 52°
2026-05-05 19:09 51.18029 6.54468 3005 ft 251 kts 52°
2026-05-05 19:09 51.19092 6.56680 2966 ft 252 kts 53°
2026-05-05 19:10 51.20152 6.58892 2732 ft 249 kts 52°
2026-05-05 19:10 51.21187 6.61046 2413 ft 242 kts 52°
2026-05-05 19:10 51.22200 6.63157 2093 ft 237 kts 52°
2026-05-05 19:10 51.23172 6.65184 1774 ft 221 kts 52°
2026-05-05 19:11 51.24072 6.67064 1487 ft 207 kts 51°
2026-05-05 19:11 51.24916 6.68827 1221 ft 195 kts 50°
2026-05-05 19:11 51.25712 6.70494 965 ft 181 kts 50°
2026-05-05 19:11 51.26437 6.72012 730 ft 163 kts 49°
2026-05-05 19:12 51.27095 6.73393 499 ft 152 kts 49°
2026-05-05 19:12 51.27720 6.74695 281 ft 143 kts 49°
2026-05-05 19:12 51.28272 6.75852 154 ft 131 kts 48°
2026-05-05 19:12 51.28798 6.76994 237 ft 135 kts 49°
2026-05-05 19:13 51.29437 6.78284 909 ft 162 kts 49°
2026-05-05 19:13 51.30153 6.79739 1950 ft 171 kts 51°
2026-05-05 19:13 51.30945 6.81313 2527 ft 193 kts 51°
2026-05-05 19:13 51.31826 6.83000 3278 ft 202 kts 51°
2026-05-05 19:14 51.32758 6.84746 3826 ft 210 kts 50°
2026-05-05 19:14 51.33701 6.86530 3971 ft 210 kts 50°
2026-05-05 19:14 51.34796 6.88057 3996 ft 211 kts 25°
2026-05-05 19:14 51.36235 6.88421 3997 ft 212 kts 358°
2026-05-05 19:15 51.37636 6.87729 3989 ft 216 kts 327°
2026-05-05 19:15 51.38565 6.85841 3997 ft 221 kts 290°
2026-05-05 19:15 51.38845 6.83421 3992 ft 224 kts 275°
2026-05-05 19:15 51.38951 6.80912 3998 ft 225 kts 274°
2026-05-05 19:16 51.38988 6.78396 3997 ft 228 kts 262°
2026-05-05 19:16 51.38445 6.76045 3866 ft 226 kts 238°
2026-05-05 19:16 51.37597 6.73955 3620 ft 222 kts 234°
2026-05-05 19:16 51.36705 6.71942 3299 ft 222 kts 233°
2026-05-05 19:17 51.35801 6.69943 3043 ft 219 kts 234°
2026-05-05 19:17 51.34898 6.67988 2998 ft 219 kts 233°
2026-05-05 19:17 51.33980 6.66022 2962 ft 223 kts 233°
2026-05-05 19:17 51.33059 6.64053 2937 ft 219 kts 234°
2026-05-05 19:18 51.32133 6.62083 2968 ft 223 kts 233°
2026-05-05 19:18 51.31209 6.60107 2977 ft 222 kts 233°
2026-05-05 19:18 51.30288 6.58136 2983 ft 220 kts 233°
2026-05-05 19:18 51.29366 6.56161 3004 ft 222 kts 233°
2026-05-05 19:19 51.28447 6.54184 3009 ft 222 kts 233°
2026-05-05 19:19 51.27541 6.52237 3008 ft 220 kts 233°
2026-05-05 19:19 51.26624 6.50266 3003 ft 223 kts 233°
2026-05-05 19:19 51.25690 6.48281 3004 ft 223 kts 233°
2026-05-05 19:20 51.24759 6.46303 3002 ft 224 kts 233°
2026-05-05 19:20 51.23825 6.44319 3002 ft 223 kts 234°
2026-05-05 19:20 51.22891 6.42353 3002 ft 221 kts 233°
2026-05-05 19:20 51.21897 6.40490 3007 ft 221 kts 216°
2026-05-05 19:21 51.20504 6.39604 3005 ft 217 kts 179°
2026-05-05 19:21 51.19068 6.40122 3008 ft 213 kts 150°
2026-05-05 19:21 51.17963 6.41616 3006 ft 208 kts 118°
2026-05-05 19:21 51.17602 6.43808 3013 ft 207 kts 90°
2026-05-05 19:22 51.17653 6.46079 3004 ft 204 kts 83°
2026-05-05 19:22 51.17763 6.48324 3006 ft 204 kts 83°
2026-05-05 19:22 51.17883 6.50545 3002 ft 204 kts 83°
2026-05-05 19:22 51.18006 6.52812 3004 ft 206 kts 83°
2026-05-05 19:23 51.18331 6.54989 3004 ft 201 kts 60°
2026-05-05 19:23 51.19113 6.56746 2954 ft 188 kts 52°
2026-05-05 19:23 51.19893 6.58358 2797 ft 181 kts 52°
2026-05-05 19:23 51.20657 6.59944 2575 ft 179 kts 52°
2026-05-05 19:24 51.21412 6.61513 2355 ft 178 kts 53°
2026-05-05 19:24 51.22166 6.63086 2110 ft 179 kts 51°
2026-05-05 19:24 51.22925 6.64669 1866 ft 180 kts 52°
2026-05-05 19:24 51.23690 6.66265 1620 ft 182 kts 51°
2026-05-05 19:25 51.24458 6.67869 1379 ft 183 kts 52°
2026-05-05 19:25 51.25234 6.69491 1116 ft 184 kts 51°
2026-05-05 19:25 51.25983 6.71059 883 ft 172 kts 50°
2026-05-05 19:25 51.26672 6.72489 634 ft 158 kts 48°
2026-05-05 19:26 51.27310 6.73831 414 ft 147 kts 50°
2026-05-05 19:26 51.27898 6.75069 226 ft 140 kts 49°
2026-05-05 19:26 51.28429 6.76159 125 ft 122 kts 49°
2026-05-05 19:26 51.28816 6.76968 126 ft 71 kts 54°
2026-05-05 19:27 51.28985 6.77345 128 ft 24 kts 55°
2026-05-05 19:27 51.29009 6.77401 127 ft 4 kts 61°
2026-05-05 19:27 51.29014 6.77525 126 ft 8 kts 104°
2026-05-05 19:27 51.28981 6.77596 124 ft 7 kts 140°
2026-05-05 19:28 51.28947 6.77638 126 ft 3 kts 142°
2026-05-05 19:28 51.28947 6.77639 126 ft 0 kts 142°
2026-05-05 19:29 51.28946 6.77639 126 ft 1 kts 142°
2026-05-05 19:29 51.28859 6.77596 128 ft 32 kts 241°
2026-05-05 19:29 51.28734 6.77283 124 ft 35 kts 225°
2026-05-05 19:29 51.28605 6.77009 125 ft 30 kts 234°
2026-05-05 19:30 51.28481 6.76762 126 ft 23 kts 232°
2026-05-05 19:30 51.28386 6.76560 124 ft 24 kts 234°
2026-05-05 19:30 51.28282 6.76336 124 ft 26 kts 231°
2026-05-05 19:30 51.28196 6.76161 125 ft 14 kts 233°
2026-05-05 19:31 51.28141 6.76045 127 ft 12 kts 230°
2026-05-05 19:31 51.28065 6.76046 126 ft 12 kts 173°
2026-05-05 19:31 51.27987 6.76049 127 ft 11 kts 176°
2026-05-05 19:31 51.27913 6.76051 128 ft 10 kts 180°
2026-05-05 19:32 51.27848 6.76051 127 ft 9 kts 180°
2026-05-05 19:32 51.27787 6.76051 129 ft 8 kts 180°
2026-05-05 19:32 51.27715 6.76045 127 ft 23 kts 184°
2026-05-05 19:32 51.27590 6.76085 128 ft 11 kts 135°
2026-05-05 19:33 51.27530 6.76126 128 ft 9 kts 149°
2026-05-05 19:33 51.27517 6.76208 130 ft 8 kts 85°
2026-05-05 19:33 51.27540 6.76264 126 ft 5 kts 19°
2026-05-05 19:33 51.27578 6.76282 130 ft 7 kts 10°
2026-05-05 19:34 51.27612 6.76288 129 ft 0 kts
2026-05-05 19:34 51.27615 6.76289 129 ft 0 kts